WX1PBD Weather Reports


time (UTC)temp
C
wind
direction
speed
KPH
gust
KPH
rain 1hr
cm
rain 24hr
cm
rain mn
cm
humidity
%
barometer
mb
20260505065008 12 235 3.2 8.0 0.00 0.00 0.00 71 1011.2
20260505064008 12 204 1.6 4.8 0.00 0.00 0.00 70 1011.2
20260505063008 12 174 3.2 9.7 0.00 0.00 0.00 69 1011.2
20260505061504 12 278 1.6 4.8 0.00 0.00 0.00 68 1011.3
20260505061008 12 357 1.6 4.8 0.00 0.00 0.00 67 1011.2
20260505060504 12 295 1.6 4.8 0.00 0.00 0.00 67 1011.2
20260505055504 12 247 1.6 8.0 0.00 0.00 0.00 66 1011.3
20260505055008 13 275 3.2 4.8 0.00 0.00 0.00 66 1011.3
20260505054505 13 279 3.2 12.9 0.00 0.00 0.00 66 1011.3
20260505054008 13 261 3.2 14.5 0.00 0.00 0.00 66 1011.3
20260505053505 13 287 4.8 9.7 0.00 0.00 0.00 65 1011.3
20260505053008 13 253 3.2 12.9 0.00 0.00 0.00 65 1011.3
20260505052504 13 154 4.8 12.9 0.00 0.00 0.00 64 1011.2
20260505052008 13 276 3.2 12.9 0.00 0.00 0.00 64 1011.3
20260505051504 13 226 4.8 14.5 0.00 0.00 0.00 64 1011.3
20260505051008 13 294 4.8 11.3 0.00 0.00 0.00 64 1011.2
20260505050504 13 243 3.2 16.1 0.00 0.00 0.00 64 1011.3
20260505041504 13 142 3.2 9.7 0.00 0.00 0.00 61 1011.5
20260505041008 13 158 4.8 16.1 0.00 0.00 0.00 61 1011.4
20260505040505 13 284 3.2 14.5 0.00 0.00 0.00 60 1011.4
20260505040005 13 113 3.2 14.5 0.00 0.00 0.00 60 1011.3
20260505035505 13 153 3.2 16.1 0.00 0.00 0.00 59 1011.2
20260505035009 13 275 6.4 16.1 0.00 0.00 0.00 59 1011.3
20260505034008 14 245 6.4 14.5 0.00 0.00 0.00 58 1011.3
20260505033008 14 304 4.8 16.1 0.00 0.00 0.00 57 1011.3
20260505032504 14 172 3.2 19.3 0.00 0.00 0.00 56 1011.2
20260505032008 14 146 3.2 19.3 0.00 0.00 0.00 56 1011.2
20260505031505 14 100 3.2 19.3 0.00 0.00 0.00 55 1011.3
20260505031008 14 238 4.8 14.5 0.00 0.00 0.00 55 1011.3
20260505030505 14 269 3.2 14.5 0.00 0.00 0.00 55 1011.2
20260505025504 15 230 6.4 20.9 0.00 0.00 0.00 54 1011.2
20260505025009 15 268 3.2 20.9 0.00 0.00 0.00 53 1011.3
20260505024008 15 141 8.0 19.3 0.00 0.00 0.00 52 1011.3
20260505023505 15 227 3.2 12.9 0.00 0.00 0.00 52 1011.4
20260505023008 15 247 8.0 14.5 0.00 0.00 0.00 51 1011.3
20260505022506 15 267 3.2 11.3 0.00 0.00 0.00 51 1011.3
20260505022008 15 263 3.2 19.3 0.00 0.00 0.00 51 1011.4
20260505021504 15 259 3.2 11.3 0.00 0.00 0.00 51 1011.3
20260505021008 15 206 4.8 14.5 0.00 0.00 0.00 50 1011.3
20260505015504 15 231 6.4 16.1 0.00 0.00 0.00 49 1011.2
20260505015008 16 294 6.4 16.1 0.00 0.00 0.00 49 1011.2
20260505014504 16 211 4.8 14.5 0.00 0.00 0.00 49 1011.2
20260505013008 16 263 4.8 12.9 0.00 0.00 0.00 47 1011.0
20260505012504 16 232 8.0 22.5 0.00 0.00 0.00 47 1010.9
20260505012009 16 295 4.8 14.5 0.00 0.00 0.00 47 1010.8
20260505011504 16 184 4.8 14.5 0.00 0.00 0.00 47 1010.7
20260505011008 16 190 3.2 19.3 0.00 0.00 0.00 46 1010.6
20260505010504 16 209 4.8 19.3 0.00 0.00 0.00 46 1010.5
20260505010004 16 311 4.8 24.1 0.00 0.00 0.00 46 1010.5
20260505005504 17 208 4.8 19.3 0.00 0.00 0.00 45 1010.4
20260505005008 17 333 8.0 19.3 0.00 0.00 0.00 45 1010.3
20260505004504 17 95 4.8 12.9 0.00 0.00 0.00 45 1010.2
20260505004008 17 132 4.8 12.9 0.00 0.00 0.00 45 1010.2
20260505003008 17 130 4.8 19.3 0.00 0.00 0.00 44 1009.9
20260505002504 17 292 4.8 25.7 0.00 0.00 0.00 44 1009.7
20260505002009 17 180 8.0 16.1 0.00 0.00 0.00 44 1009.6
20260505001504 17 264 8.0 16.1 0.00 0.00 0.00 43 1009.4
20260505001008 17 199 9.7 19.3 0.00 0.00 0.00 43 1009.3
20260505000004 18 206 4.8 27.4 0.00 0.00 0.00 43 1009.1
20260504235504 18 309 4.8 20.9 0.00 0.00 0.00 43 1008.9
20260504235008 18 173 9.7 19.3 0.00 0.00 0.00 42 1008.8
20260504234504 18 197 9.7 25.7 0.00 0.00 0.00 42 1008.8
20260504234007 18 140 9.7 22.5 0.00 0.00 0.00 41 1008.8
20260504233504 18 153 11.3 27.4 0.00 0.00 0.00 41 1008.7
20260504233008 19 190 4.8 12.9 0.00 0.00 0.00 40 1008.6
20260504232504 19 8 8.0 16.1 0.00 0.00 0.00 39 1008.5
20260504232008 20 187 4.8 19.3 0.00 0.00 0.00 38 1008.4
20260504231504 20 235 6.4 16.1 0.00 0.00 0.00 37 1008.3
20260504231008 20 279 8.0 19.3 0.00 0.00 0.00 37 1008.0
20260504230504 20 250 4.8 19.3 0.00 0.00 0.00 36 1007.9
20260504230004 20 242 8.0 29.0 0.00 0.00 0.00 35 1007.9
20260504225007 21 157 4.8 14.5 0.00 0.00 0.00 31 1007.7
20260504224504 21 232 8.0 20.9 0.00 0.00 0.00 31 1007.6
20260504224008 21 228 4.8 12.9 0.00 0.00 0.00 31 1007.5
20260504223504 21 265 9.7 20.9 0.00 0.00 0.00 30 1007.4
20260504223008 22 279 8.0 14.5 0.00 0.00 0.00 30 1007.5
20260504222504 22 261 6.4 19.3 0.00 0.00 0.00 30 1007.4
20260504222008 22 246 8.0 19.3 0.00 0.00 0.00 30 1007.5
20260504221504 22 263 9.7 22.5 0.00 0.00 0.00 30 1007.4
20260504221008 22 250 8.0 19.3 0.00 0.00 0.00 29 1007.4
20260504220504 22 268 11.3 20.9 0.00 0.00 0.00 29 1007.5
20260504215009 22 174 9.7 20.9 0.00 0.00 0.00 29 1007.4
20260504214504 22 184 6.4 19.3 0.00 0.00 0.00 29 1007.5
20260504213504 22 267 11.3 22.5 0.00 0.00 0.00 28 1007.5
20260504213009 22 269 8.0 19.3 0.00 0.00 0.00 28 1007.5
20260504212504 22 224 12.9 29.0 0.00 0.00 0.00 28 1007.6
20260504211505 23 150 8.0 19.3 0.00 0.00 0.00 27 1007.5
20260504211008 23 260 8.0 14.5 0.00 0.00 0.00 28 1007.5
20260504210004 22 251 9.7 14.5 0.00 0.00 0.00 27 1007.5
20260504205504 22 258 8.0 19.3 0.00 0.00 0.00 28 1007.5
20260504204504 22 243 9.7 25.7 0.00 0.00 0.00 28 1007.6
20260504204008 22 305 6.4 24.1 0.00 0.00 0.00 28 1007.5
20260504203504 22 224 11.3 19.3 0.00 0.00 0.00 27 1007.6
20260504203008 22 254 9.7 20.9 0.00 0.00 0.00 27 1007.6
20260504202007 22 260 14.5 27.4 0.00 0.00 0.00 27 1007.7
20260504201504 22 251 8.0 27.4 0.00 0.00 0.00 27 1007.7
20260504200504 22 241 11.3 24.1 0.00 0.00 0.00 27 1007.7
20260504200004 22 257 8.0 24.1 0.00 0.00 0.00 27 1007.7
20260504195505 22 270 14.5 27.4 0.00 0.00 0.00 27 1007.8
20260504195008 22 246 8.0 27.4 0.00 0.00 0.00 27 1007.7
20260504194010 22 272 14.5 27.4 0.00 0.00 0.00 27 1007.8
20260504193504 21 272 14.5 32.2 0.00 0.00 0.00 27 1007.8
20260504192504 22 266 11.3 19.3 0.00 0.00 0.00 27 1007.9
20260504192008 21 238 11.3 25.7 0.00 0.00 0.00 28 1008.0
20260504191504 21 250 12.9 29.0 0.00 0.00 0.00 27 1008.0
20260504191008 22 262 16.1 29.0 0.00 0.00 0.00 27 1008.2
20260504190505 22 260 11.3 22.5 0.00 0.00 0.00 27 1008.1
20260504185008 21 288 11.3 27.4 0.00 0.00 0.00 28 1008.1
20260504184009 21 256 8.0 19.3 0.00 0.00 0.00 29 1008.1
20260504183505 21 245 14.5 32.2 0.00 0.00 0.00 28 1008.1
20260504182505 21 282 8.0 20.9 0.00 0.00 0.00 29 1008.1
20260504182008 21 321 9.7 27.4 0.00 0.00 0.00 29 1008.2
20260504181009 21 272 12.9 38.6 0.00 0.00 0.00 29 1008.3
20260504180504 21 267 12.9 24.1 0.00 0.00 0.00 28 1008.3
20260504180014 20 278 19.3 41.8 0.00 0.00 0.00 29 1008.4
20260504175524 20 277 11.3 35.4 0.00 0.00 0.00 28 1008.4
20260504175028 20 289 14.5 32.2 0.00 0.00 0.00 28 1008.5
20260504174534 21 270 9.7 29.0 0.00 0.00 0.00 28 1008.4
20260504174008 20 257 9.7 24.1 0.00 0.00 0.00 29 1008.5
20260504173008 20 258 14.5 20.9 0.00 0.00 0.00 29 1008.6
20260504172008 21 271 11.3 32.2 0.00 0.00 0.00 28 1008.4
20260504171504 20 246 9.7 20.9 0.00 0.00 0.00 30 1008.4
20260504171009 20 269 11.3 27.4 0.00 0.00 0.00 30 1008.4
20260504151008 18 261 9.7 25.7 0.00 0.00 0.00 34 1009.8
20260504150505 18 258 11.3 27.4 0.00 0.00 0.00 34 1009.9
20260504141008 16 268 11.3 22.5 0.00 0.00 0.00 39 1010.3
20260504140504 16 286 14.5 32.2 0.00 0.00 0.00 39 1010.4
20260504130505 15 268 11.3 24.1 0.00 0.00 0.00 42 1010.8
20260504110504 8 157 1.6 4.8 0.00 0.00 0.00 56 1011.6
20260504100504 8 269 3.2 11.3 0.00 0.00 0.00 57 1011.6
20260504081506 8 284 3.2 4.8 0.00 0.00 0.00 53 1011.4
20260504081008 8 285 1.6 4.8 0.00 0.00 0.00 54 1011.4
20260504080504 8 281 3.2 4.8 0.00 0.00 0.00 53 1011.4